Location: Newark
(30.3936°N, 76.2251°E)
Time: 10:52:45
(UTC+00:00)

Envisat - Visible Passes

Search period start: 25 September 2020 00:00
Search period end: 05 October 2020 00:00
Orbit: 764 x 766 km, 98.1° (Epoch: 24 September)

Date Brightness Start Highest point End Pass type
(mag) Time Alt. Az. Time Alt. Az. Time Alt. Az.
25 Sep 5.2 00:14:23 10° NE 00:18:53 32° E 00:23:22 10° SSE visible
25 Sep 6.3 23:39:44 10° ENE 23:41:52 13° E 23:44:00 10° ESE visible
27 Sep 6.2 13:29:10 10° SW 13:32:08 16° W 13:35:06 10° WNW visible
28 Sep 5.7 00:03:23 10° NE 00:07:29 24° E 00:11:33 10° SSE visible
30 Sep 6.0 13:16:59 10° SW 13:20:42 21° W 13:24:26 10° NW visible
30 Sep 6.0 23:52:33 10° NE 23:56:03 19° E 23:59:32 10° SE visible
02 Oct 6.7 13:45:47 10° W 13:46:20 10° W 13:46:53 10° W visible
03 Oct 5.0 00:16:59 10° NNE 00:21:37 35° E 00:26:13 10° SSE visible
03 Oct 5.5 13:05:03 10° SSW 13:09:17 27° W 13:13:32 10° NW visible
03 Oct 6.3 23:42:01 10° ENE 23:44:37 14° E 23:47:13 10° SE visible
